Simultaneous Nadir Overpasses (SNOs) Predictions

Prediction of SNOs between LANDSAT-8 and METOP-A Satellite Orbit:

Table of predicted SNOs for the next 14.0 days since TLE Epoch: 9/19/2020
Index Date (LANDSAT-8) Time (LANDSAT-8) Lat,Lon (LANDSAT-8) SZA (LANDSAT-8 ) Date (METOP-A) Time (METOP-A) Lat,Lon (METOP-A) SZA (METOP-A ) Distance(km) Time Diff (sec)
1 09/20/2020 00:12:38 -81.44, 42.70 96.79 09/20/2020 00:12:02 -81.46, 42.80 96.79 2.15 36
2 09/20/2020 01:02:04 81.45,-149.56 83.24 09/20/2020 01:02:42 81.45,-149.59 83.26 0.58 38
3 09/22/2020 19:46:53 -81.45, 109.19 95.67 09/22/2020 19:46:24 -81.45, 109.38 95.65 3.21 29
4 09/22/2020 20:36:19 81.45, -83.10 84.36 09/22/2020 20:37:04 81.45, -83.04 84.39 1.07 45
5 09/25/2020 15:21:09 -81.45, 175.66 94.54 09/25/2020 15:20:48 -81.45, 175.55 94.56 2.00 21
6 09/25/2020 16:10:35 81.45, -16.65 85.48 09/25/2020 16:11:27 81.44, -16.49 85.52 2.73 52
7 09/28/2020 10:55:25 -81.45,-117.89 93.43 09/28/2020 10:55:11 -81.45,-117.90 93.43 0.34 14
8 09/28/2020 11:44:51 81.45, 49.78 86.60 09/28/2020 11:45:51 81.45, 49.64 86.61 2.36 60
9 10/01/2020 06:29:40 -81.45, -51.46 92.31 10/01/2020 06:29:33 -81.45, -51.37 92.31 1.44 7
